Theta_e
304 304 304 304 305 305 305 306 306 305 303 308 308 312 308 303 300 309 313 316 312 302 297 299 295 296 296 299 297 298 296 297 298 296 298 297 298 296 296 296 294 296 295 296 296 297 295 297 297 299 298 297 300 303 302 301 301 301 300 301 302 303 295 292 293 297 299 299 301 302 302 301 299 299 300 299 297 298 295 294 295 291 292 290 290 287 292
303 304 304 304 305 305 305 306 306 305 303 306 308 308 304 303 302 305 311 316 311 300 290 290 291 294 296 296 296 297 297 296 295 295 297 296 296 294 294 296 297 294 298 297 294 297 290 297 298 298 299 299 304 304 303 304 302 301 301 298 304 293 297 295 290 289 292 296 298 297 301 300 297 297 299 298 299 300 300 299 299 290 292 292 289 284 290
303 303 304 304 305 305 305 306 306 305 304 306 308 306 304 303 306 306 307 311 309 298 299 296 293 295 294 296 294 295 295 297 298 297 296 297 297 296 295 297 298 296 297 295 297 298 295 296 299 298 296 299 302 303 303 304 302 303 303 305 303 295 295 293 287 284 283 282 284 287 290 294 297 298 298 298 297 298 298 291 293 288 293 294 290 289 294
303 303 303 304 305 305 305 305 305 304 304 304 309 309 305 298 291 299 303 305 304 303 304 302 298 296 295 291 295 296 294 296 297 297 297 298 298 298 297 298 298 296 295 294 294 294 298 295 297 298 297 299 300 303 303 302 302 304 309 305 304 297 298 296 293 289 287 289 292 296 296 298 293 295 296 297 298 299 299 297 291 289 292 291 294 295 293
303 304 303 304 305 305 305 305 304 304 304 304 307 309 304 303 294 293 291 301 300 300 300 298 299 295 298 289 295 294 294 296 295 297 295 298 297 297 296 296 295 294 294 294 294 295 295 297 296 297 298 299 300 302 303 303 304 306 302 305 300 299 291 294 294 294 294 295 294 296 296 295 296 295 295 297 297 299 298 292 290 297 292 287 297 297 295
303 303 303 304 304 305 305 305 304 303 303 303 310 303 301 295 296 300 301 294 290 292 293 297 295 298 297 295 297 294 293 294 292 296 297 298 299 295 296 296 296 295 295 296 291 294 293 295 292 297 298 297 299 299 303 303 307 304 302 305 300 295 289 295 295 293 294 295 296 297 295 295 296 295 296 296 297 298 296 297 299 299 291 288 296 299 296
303 303 303 304 304 305 305 305 305 303 302 304 311 302 301 301 300 299 304 295 298 297 296 297 295 294 296 295 296 294 294 293 294 294 296 296 296 297 289 293 294 295 297 296 294 296 290 290 298 297 300 297 298 297 298 301 305 303 302 303 303 298 293 296 295 293 293 294 295 296 295 295 295 295 295 296 298 299 299 299 301 300 299 300 299 297 296
302 303 303 303 304 305 305 305 304 304 302 310 305 302 300 297 297 295 302 300 298 299 298 296 295 292 295 290 294 293 294 293 294 294 294 290 294 298 296 294 295 296 297 297 295 295 296 296 291 297 297 298 298 298 299 298 302 302 301 301 303 298 292 296 296 292 292 294 294 295 295 294 294 295 296 297 298 298 298 299 300 301 301 300 298 294 293
302 302 303 303 304 304 305 305 305 303 303 308 302 301 303 303 303 303 298 293 295 297 296 295 293 291 292 290 291 294 293 291 295 293 296 293 292 294 294 296 297 297 296 295 294 295 296 296 296 297 297 294 298 296 298 299 299 300 301 301 303 300 294 298 296 289 289 293 293 293 294 294 292 293 294 295 295 292 295 295 300 298 295 296 294 291 291
302 302 303 303 303 304 305 305 305 304 304 307 303 299 305 308 305 305 301 292 293 293 296 295 294 288 291 290 289 290 291 293 295 290 295 297 296 295 295 297 298 295 294 292 294 296 297 297 297 298 299 299 299 299 298 299 300 300 301 303 300 299 296 292 291 288 288 293 293 293 293 292 288 288 293 296 295 296 297 297 300 300 299 293 291 292 297
302 302 302 303 303 304 304 305 305 304 308 306 305 300 301 300 301 302 300 292 291 294 294 292 291 291 293 290 291 293 292 292 292 289 288 296 296 297 297 296 295 292 292 294 298 299 299 300 300 300 299 298 298 299 299 299 299 299 301 301 298 300 297 292 295 287 287 292 293 294 289 282 284 295 301 298 295 295 294 294 297 299 300 296 299 298 299
301 302 302 303 303 304 304 305 305 305 304 310 309 303 303 306 306 303 296 290 289 295 292 289 290 292 293 293 293 290 289 290 291 295 291 293 296 297 296 295 295 288 295 300 300 301 301 301 300 300 299 298 298 298 298 297 298 300 300 299 298 297 295 292 297 288 287 292 293 287 281 284 294 296 297 299 299 298 294 293 295 296 299 299 298 298 298
301 302 302 302 303 303 304 305 305 305 305 309 309 301 306 308 305 300 296 292 289 292 290 290 293 292 292 292 294 294 293 292 293 295 294 293 293 295 295 294 293 293 299 298 300 300 297 294 295 294 295 297 297 298 296 296 296 298 299 299 298 293 294 295 291 290 290 289 288 279 282 292 296 296 297 299 299 298 297 293 294 296 297 297 296 297 298
301 301 301 302 302 303 304 304 305 306 305 306 308 303 304 306 302 300 296 292 289 293 295 293 293 293 293 292 291 293 294 295 295 295 293 294 292 292 294 295 296 299 299 300 299 298 295 295 289 291 292 294 295 293 295 296 297 296 297 298 298 297 295 294 289 292 284 287 287 285 291 293 293 292 295 297 294 295 293 288 292 298 298 298 296 295 294
301 301 301 302 302 303 304 304 305 305 305 305 311 305 304 305 306 303 302 296 288 291 293 287 291 293 294 292 293 293 293 293 294 294 295 297 294 295 295 296 300 299 301 298 296 297 292 291 287 287 290 288 284 286 294 292 296 297 298 298 298 298 292 294 290 288 290 287 285 285 283 281 287 294 297 299 298 299 300 295 290 299 300 301 298 294 294
300 301 301 301 302 303 303 304 305 305 305 304 310 304 304 307 310 308 302 295 294 287 290 294 295 294 294 293 293 292 290 290 291 293 294 294 293 296 297 299 301 301 299 297 296 292 291 287 285 285 284 284 289 288 286 292 291 295 298 297 296 297 299 294 291 289 289 287 283 283 281 283 290 293 294 297 298 299 300 293 288 296 300 300 298 296 296
300 300 301 301 302 302 303 304 304 305 305 304 307 303 302 308 309 306 300 297 294 288 295 296 298 297 294 292 294 292 294 291 293 288 289 290 292 293 295 298 302 300 296 296 295 292 289 287 290 290 289 290 286 285 291 289 289 290 294 296 294 295 293 292 289 287 287 286 284 282 285 283 291 294 294 295 297 297 295 283 284 295 299 299 298 296 296
300 300 300 301 301 302 303 304 304 305 304 304 307 303 302 309 311 309 302 297 292 291 294 296 294 292 290 292 292 294 295 295 294 296 292 294 293 291 293 295 295 298 300 293 292 289 287 287 285 285 285 291 292 291 283 289 285 286 288 291 290 289 289 290 286 287 286 285 286 286 284 289 294 294 295 296 298 296 285 281 288 297 299 300 299 298 299
300 300 300 300 301 302 302 303 304 305 305 304 308 303 302 308 309 310 303 297 295 288 295 297 297 295 297 299 297 296 295 295 295 291 289 291 292 294 295 296 297 291 296 291 292 288 286 286 291 289 287 289 291 285 292 286 285 290 290 288 288 288 288 288 289 286 285 287 284 284 285 288 294 295 295 296 293 284 284 291 299 299 298 299 299 298 299
300 300 300 300 301 301 302 303 304 305 305 305 306 302 302 306 308 308 302 294 295 292 294 295 296 293 296 294 292 292 294 294 294 293 290 287 295 296 295 291 295 295 293 295 286 290 287 285 287 291 286 287 290 292 288 287 291 288 289 291 287 287 284 285 285 287 287 286 283 283 279 286 295 294 293 295 288 287 294 297 298 299 299 298 298 298 298
300 300 300 300 301 301 302 303 304 304 305 305 304 307 301 306 308 308 308 303 297 291 292 298 297 295 295 295 296 295 294 291 293 291 294 293 295 294 285 283 289 292 288 290 285 285 288 286 289 287 290 289 290 289 284 285 288 293 291 290 289 292 285 285 286 289 283 283 280 280 285 291 296 295 288 291 293 296 297 296 294 296 297 296 296 296 297
300 300 300 300 301 302 302 303 304 304 305 304 303 311 300 304 306 307 307 303 296 292 295 298 299 298 298 298 298 299 297 296 297 298 295 293 296 294 293 294 292 293 294 294 291 290 292 290 292 288 286 288 292 286 289 285 283 289 293 291 283 292 289 290 285 290 286 284 285 290 294 295 296 296 294 295 295 295 296 296 295 294 294 297 295 295 296
300 300 300 300 301 301 302 303 303 304 304 304 305 307 302 303 303 307 309 299 301 301 302 301 300 300 300 299 300 301 300 300 301 301 299 293 292 293 292 292 292 297 296 297 291 291 292 291 288 291 288 289 287 286 288 287 285 288 285 291 290 294 294 296 293 289 293 294 294 294 294 294 294 296 297 296 296 297 297 296 295 295 296 296 294 294 295
300 300 299 300 300 301 302 302 303 304 304 305 305 308 304 304 304 306 303 300 297 293 296 300 296 290 293 294 298 300 299 299 300 301 302 300 290 290 294 294 295 298 296 296 296 293 291 290 291 292 286 290 291 286 284 283 285 289 288 288 291 293 294 292 288 292 289 283 292 292 292 293 294 293 295 295 296 296 297 295 295 295 296 296 296 295 294
301 300 299 299 300 301 301 302 303 303 303 304 306 308 309 306 307 306 303 292 293 293 287 289 292 296 298 300 301 299 299 301 302 301 300 300 297 292 290 294 297 294 294 296 299 297 293 288 291 289 284 291 292 285 290 286 286 291 285 287 289 288 295 290 290 289 286 286 291 293 294 294 295 294 293 293 295 296 296 296 295 295 296 296 295 296 295
300 300 299 299 300 300 301 302 303 303 303 303 305 306 303 302 307 309 306 302 300 294 289 288 292 299 301 298 296 298 300 301 300 300 300 299 299 299 298 298 299 299 298 298 297 292 290 289 289 289 288 288 294 288 287 290 289 292 288 286 291 291 292 285 290 287 290 292 293 293 293 293 294 294 295 295 295 295 296 296 296 296 295 295 295 296 296
300 299 299 299 299 300 301 301 302 302 303 303 305 307 305 305 307 305 302 302 297 290 292 289 293 295 298 296 298 300 300 300 301 300 298 298 298 299 299 297 296 297 296 296 294 291 291 289 288 288 291 289 292 291 291 289 290 287 286 290 293 291 287 291 289 285 285 285 289 292 286 286 290 293 294 295 296 296 295 296 295 295 295 295 295 295 295
300 299 299 299 299 300 301 302 302 302 303 303 306 306 307 306 305 306 306 305 301 293 291 291 292 294 299 295 298 299 299 300 300 299 298 297 298 298 298 296 296 295 294 292 289 289 289 287 288 289 289 291 289 288 291 291 291 288 289 290 292 288 289 289 285 285 284 290 292 293 292 292 292 294 295 295 296 296 294 294 294 295 294 294 294 294 295
300 300 300 299 300 300 301 302 302 302 302 303 307 306 304 305 307 306 305 307 306 301 295 294 297 297 289 293 300 299 299 301 300 299 298 297 297 298 297 296 295 295 295 291 290 290 288 288 290 290 288 293 290 287 289 284 285 283 288 291 292 292 294 293 292 291 292 294 293 294 293 290 293 295 295 295 296 295 295 295 294 294 294 295 294 294 292
300 300 300 300 300 301 301 302 302 303 302 306 305 304 298 299 305 305 305 306 306 303 293 289 287 289 298 298 297 297 297 299 299 299 298 297 297 296 295 296 295 296 295 289 290 286 288 288 289 294 294 296 289 287 283 286 285 286 291 292 291 293 293 294 294 292 290 294 294 294 294 294 295 295 295 296 295 295 294 294 295 295 294 295 294 294 295
301 301 301 301 301 301 302 302 302 302 302 305 304 295 292 290 301 306 304 306 307 302 295 293 289 293 293 297 298 295 296 296 298 297 297 298 298 296 298 298 297 295 291 291 290 288 289 287 288 290 293 293 289 287 286 285 283 286 288 291 292 292 292 293 294 294 294 294 295 295 294 294 295 293 293 294 295 295 294 294 294 293 293 294 294 294 294
301 301 301 301 301 302 302 302 303 303 306 303 300 298 297 298 302 304 305 306 306 302 295 289 287 289 289 292 297 298 297 298 298 299 297 297 297 298 298 296 293 296 291 289 289 290 288 287 287 289 292 292 289 286 287 286 284 284 289 290 292 292 293 292 293 293 294 295 293 292 291 291 293 291 291 294 295 295 295 295 295 296 293 293 295 295 294
301 301 301 302 301 302 302 303 303 303 304 304 303 303 303 302 302 304 306 307 305 300 299 291 287 287 287 292 296 297 297 298 297 298 294 297 295 296 293 296 297 295 297 290 288 287 289 288 288 287 291 292 287 286 287 285 286 290 290 291 292 292 292 293 293 294 293 294 293 289 288 289 291 293 294 295 295 295 294 294 294 294 294 293 293 293 293
301 301 301 301 302 302 302 303 303 300 301 304 302 303 306 302 305 303 306 306 303 300 295 290 285 285 287 294 291 294 298 294 293 294 289 295 297 296 291 294 294 288 292 289 290 289 290 289 288 287 290 288 287 286 281 286 290 291 291 291 292 292 292 292 292 291 292 293 294 294 293 294 294 294 294 293 294 295 294 294 294 293 293 292 292 292 293
301 301 301 301 302 303 302 302 304 303 301 301 302 306 306 302 302 303 306 304 293 290 289 289 290 286 286 286 286 291 297 295 291 293 290 293 297 293 293 289 291 287 289 295 288 288 288 288 289 285 285 289 285 281 283 287 289 290 291 291 292 292 292 290 290 292 293 294 294 293 294 294 293 292 292 293 293 293 293 293 293 293 291 292 292 292 292
301 300 302 302 301 302 305 302 304 301 299 299 302 304 302 303 305 309 308 307 300 292 288 288 288 287 287 284 284 288 297 293 295 295 293 291 293 295 294 290 286 289 294 290 286 290 287 291 288 284 288 284 282 285 287 290 289 290 290 290 292 291 291 291 291 292 293 294 293 293 293 292 292 292 292 292 292 292 293 292 292 292 292 292 292 292 292
301 300 300 301 303 302 299 297 301 302 302 302 303 302 300 302 306 306 305 303 304 302 294 289 288 289 290 287 289 291 294 286 291 289 292 289 288 290 290 288 286 287 288 287 288 286 290 294 287 283 284 283 285 290 291 291 291 290 291 292 292 292 292 292 293 293 293 292 292 292 292 292 291 292 291 291 291 292 292 291 291 291 291 291 291 291 291
300 299 304 301 301 293 292 295 301 304 302 302 302 302 302 300 294 294 294 292 295 296 293 293 288 292 293 291 286 293 292 289 293 287 288 290 287 287 290 288 287 286 282 285 287 292 288 286 284 284 284 290 291 291 291 292 292 292 293 293 293 293 293 293 293 292 291 289 289 290 291 291 290 291 291 291 292 291 291 293 293 293 292 291 291 291 291
302 303 302 300 297 292 293 301 306 300 304 303 302 296 291 293 292 288 289 291 291 290 292 292 289 292 291 289 290 295 293 288 287 289 285 291 286 284 288 283 288 286 283 284 285 292 283 285 285 284 284 288 288 290 292 293 293 294 294 294 294 294 294 293 294 292 291 290 291 292 291 289 290 290 292 292 292 293 293 293 292 292 292 292 292 292 292
304 299 294 294 294 297 302 304 301 301 301 295 295 292 287 291 288 284 291 288 287 290 292 287 292 293 292 290 289 288 295 292 286 286 286 288 294 285 287 286 287 284 279 281 284 290 283 280 284 283 282 286 287 291 291 292 292 293 294 294 294 294 294 294 294 295 294 294 293 293 293 293 293 292 292 292 292 291 292 293 293 293 292 292 292 291 291
300 301 298 294 299 301 302 305 304 302 295 290 289 288 288 284 289 289 288 286 286 286 292 292 293 292 294 294 292 288 296 298 296 295 289 285 292 291 286 282 288 281 280 281 286 287 285 282 282 281 283 287 289 291 292 292 292 293 293 294 294 294 294 294 294 294 294 293 293 293 293 293 293 293 293 293 292 292 290 291 292 292 292 292 292 292 293
299 299 301 304 302 303 302 300 297 291 290 291 286 281 286 286 288 288 289 284 284 287 290 290 287 288 289 291 291 293 292 297 293 290 288 284 288 285 284 285 286 280 277 285 287 286 284 279 279 281 285 289 291 291 291 291 292 292 293 294 294 294 294 294 293 294 294 293 293 293 293 293 293 293 293 293 293 293 292 292 292 293 292 293 293 293 293
297 298 302 301 299 295 296 290 291 290 283 282 283 280 284 282 285 284 285 288 290 289 290 296 294 295 296 297 293 295 292 296 290 289 287 284 289 288 284 283 281 277 282 289 285 282 279 279 279 283 288 289 291 291 292 292 293 293 293 294 294 294 294 293 293 293 294 294 293 293 293 293 293 293 294 294 293 292 292 292 293 293 293 293 293 293 292
302 302 298 294 291 290 291 279 290 286 283 285 282 277 281 281 284 285 284 286 289 288 292 289 290 290 286 292 290 289 290 294 292 290 287 289 286 283 282 279 280 286 289 284 283 279 280 282 283 286 289 290 291 291 292 292 293 293 294 295 295 294 293 294 294 293 293 294 294 294 294 293 293 294 294 294 294 292 293 292 293 293 293 293 292 292 293
295 292 291 289 286 288 286 278 289 285 279 281 285 284 284 282 284 286 285 289 292 289 291 292 291 291 288 293 293 291 289 287 292 286 283 286 283 284 281 280 285 285 282 279 281 282 282 280 286 288 289 289 290 291 292 292 292 292 293 294 295 295 294 293 293 293 292 293 293 293 293 293 293 293 293 293 294 294 293 293 293 293 293 293 293 292 293
291 289 288 283 278 285 285 281 284 281 286 287 286 288 287 287 288 288 292 293 291 292 291 291 291 291 288 291 287 286 289 289 286 285 286 286 281 279 285 288 286 280 279 280 278 277 279 283 285 286 289 289 290 291 292 292 293 293 292 291 292 293 294 294 295 295 294 294 294 294 294 294 293 293 293 294 294 294 294 294 294 294 294 293 292 292 292
291 291 290 288 283 285 288 282 284 287 288 289 291 291 291 291 292 292 293 293 292 293 293 293 292 292 288 288 289 289 289 289 284 286 287 281 280 283 287 282 277 279 276 275 277 279 282 285 286 288 290 290 290 291 291 292 292 292 292 292 291 291 293 294 295 294 295 295 295 295 295 295 295 294 294 294 295 295 295 295 295 294 293 293 293 293 292
287 291 290 282 281 285 283 286 292 291 292 293 292 293 293 293 292 291 293 295 294 294 292 292 289 289 288 292 290 286 287 288 284 285 286 284 285 282 280 279 278 280 281 279 280 284 285 286 288 288 290 291 291 290 291 291 291 292 293 293 293 292 292 293 293 294 294 293 293 294 294 295 295 295 294 294 295 296 296 295 295 295 295 294 294 293 292
292 289 286 285 287 287 288 291 291 288 290 291 292 293 292 291 290 291 293 295 293 292 293 291 289 288 284 288 286 285 283 287 281 281 285 283 278 275 276 274 277 276 282 284 284 286 286 289 290 290 291 291 291 291 291 292 293 293 294 293 293 293 293 293 294 294 294 294 294 294 294 294 295 295 295 294 294 294 296 297 296 295 295 294 293 293 292
290 289 289 288 287 289 292 292 289 287 289 290 290 290 292 291 291 292 294 292 294 293 293 291 290 286 286 286 282 284 283 286 284 284 281 279 279 281 279 276 279 279 282 285 286 287 288 289 290 290 291 291 292 292 292 293 292 293 293 293 293 292 293 293 293 294 295 295 295 295 295 294 294 294 293 292 294 295 296 296 296 295 295 295 294 294 292
293 290 290 294 289 288 289 285 285 285 286 287 289 290 291 290 291 291 295 294 294 291 289 286 287 285 284 283 282 278 281 287 283 281 280 280 283 281 279 278 281 284 286 288 289 289 290 292 290 290 290 292 293 293 294 294 293 293 292 292 292 293 293 294 294 295 295 296 296 292 295 294 294 295 295 294 294 294 295 295 295 295 295 294 295 294 293
289 287 287 291 293 293 292 291 290 289 289 290 290 292 292 290 292 293 296 294 292 287 285 287 286 284 282 279 282 285 287 284 282 282 280 283 285 281 281 283 285 287 287 288 289 291 291 292 292 289 291 292 292 293 294 294 294 293 293 293 293 292 293 293 294 295 295 295 296 296 297 296 296 295 295 294 293 293 293 294 295 295 295 294 295 295 294
Wind_Speed
22 24 25 25 25 25 25 25 24 22 22 11 8 8 6 2 4 5 4 1 5 7 7 8 7 7 8 6 5 7 3 7 11 12 10 12 10 11 9 9 11 13 11 10 10 7 8 10 6 8 6 2 9 5 1 1 6 6 6 11 4 1 2 2 10 10 6 5 6 3 5 8 10 9 9 7 11 12 10 9 7 7 6 9 6 6 5
22 24 26 25 26 24 25 24 23 21 17 9 9 8 5 2 2 3 5 2 4 6 5 4 4 7 8 4 9 5 9 8 11 12 10 7 7 9 9 10 12 11 5 5 8 6 5 5 9 3 5 4 2 9 5 1 1 3 4 3 5 4 7 11 6 6 8 10 9 8 8 8 10 9 9 12 11 11 8 9 8 6 7 10 5 6 4
21 24 26 25 25 25 25 25 23 23 19 12 6 6 6 4 1 2 4 3 2 3 4 4 3 6 5 6 6 7 7 4 8 8 9 6 7 6 9 9 5 6 8 10 9 8 8 6 4 6 7 6 6 2 3 6 8 9 9 9 3 1 4 4 9 9 10 9 9 6 7 11 8 11 11 8 12 11 8 6 5 7 6 10 7 3 6
20 23 26 25 25 26 25 25 25 23 20 16 6 7 7 3 3 2 3 2 3 3 4 4 5 4 5 3 4 5 6 6 8 7 6 6 7 8 8 6 7 11 9 9 10 11 9 9 3 5 2 5 6 8 9 7 1 7 10 9 6 2 6 4 4 4 3 4 4 5 7 6 12 10 9 8 7 9 10 7 6 9 8 10 8 11 10
20 22 25 24 25 26 25 26 26 25 23 13 6 7 5 2 2 3 4 2 1 4 7 6 6 3 1 2 2 4 5 3 3 1 5 2 7 6 5 7 6 8 9 8 9 10 8 8 10 7 8 4 4 8 12 13 7 6 2 3 2 1 2 5 3 4 4 4 3 4 4 9 8 8 8 4 4 5 7 6 7 6 5 7 8 18 15
20 21 24 25 25 25 24 26 27 26 26 19 6 5 4 2 3 3 5 5 5 3 5 7 4 8 4 2 4 3 2 2 1 3 2 3 2 6 2 8 6 8 9 7 6 7 7 7 4 5 5 1 3 5 8 8 10 9 7 6 6 3 2 3 3 1 5 9 11 9 3 6 6 4 3 2 2 3 3 1 2 2 7 1 9 12 16
20 22 23 25 27 25 25 26 28 27 28 22 7 4 4 2 2 4 2 1 5 6 4 5 4 5 7 4 5 5 6 5 5 5 4 1 6 5 0 5 3 3 5 6 3 3 7 2 4 5 7 5 1 4 6 5 9 11 9 9 8 7 7 6 5 5 6 9 11 10 11 4 3 5 4 3 4 5 5 8 9 6 8 12 13 16 12
20 21 22 25 26 25 25 26 27 28 29 18 5 8 6 5 6 2 2 4 5 5 3 5 4 4 9 1 8 5 6 7 6 6 7 4 7 9 4 4 5 7 8 6 6 8 8 7 2 4 9 1 4 2 3 2 9 8 9 8 9 8 4 10 8 7 8 7 6 9 12 7 4 6 6 6 6 8 8 9 10 14 13 14 15 13 11
20 21 22 24 25 25 26 25 25 28 27 5 7 6 6 4 4 4 6 3 4 3 4 4 5 4 8 5 7 6 8 8 9 8 9 9 8 9 8 8 4 9 9 10 10 8 6 4 4 4 5 3 5 5 3 6 4 9 8 8 8 8 2 6 8 7 7 9 11 10 10 8 7 5 3 1 5 6 8 6 7 5 9 12 14 8 8
20 21 22 23 24 25 25 23 24 26 26 7 7 7 5 3 2 3 5 2 5 2 3 4 2 5 6 4 4 6 7 8 9 2 8 8 9 10 10 10 5 7 8 11 11 9 7 6 6 5 3 4 4 2 2 3 4 3 5 5 4 7 5 5 7 8 6 10 11 11 10 8 10 9 10 6 4 5 7 9 11 10 7 9 4 6 9
19 20 21 23 25 25 25 23 22 23 15 8 7 7 6 7 6 4 5 1 2 5 3 7 6 4 1 1 2 6 7 7 8 5 3 9 9 11 10 11 9 6 10 10 10 8 7 5 5 2 3 3 1 0 1 2 1 4 2 6 4 7 5 3 6 8 6 11 13 10 8 9 6 5 5 6 7 5 4 5 7 8 7 6 9 11 13
19 20 21 22 23 25 25 23 22 20 16 8 7 5 6 6 6 5 4 1 2 3 6 7 6 4 5 3 3 5 2 4 7 6 5 9 11 10 11 9 9 5 9 10 9 7 5 5 5 2 3 3 2 2 2 3 3 2 3 3 2 8 8 9 7 5 7 6 11 9 10 7 7 0 5 4 4 7 11 8 6 6 7 13 15 14 14
19 19 20 21 22 24 24 23 22 21 19 11 7 7 6 6 6 6 3 3 3 5 4 6 5 6 4 5 5 2 4 3 2 5 1 6 9 9 8 8 8 8 11 11 10 8 5 0 1 3 2 4 4 4 2 0 2 2 4 3 3 3 6 5 2 1 5 5 8 7 2 7 4 5 3 5 5 9 10 7 5 6 7 10 12 12 12
19 19 20 20 21 22 22 22 22 22 20 15 7 7 6 7 6 5 2 2 3 5 6 2 6 7 7 7 5 3 2 4 3 4 2 2 4 7 8 9 8 7 8 8 9 6 4 4 2 4 6 6 7 7 8 3 0 1 2 1 3 4 6 3 3 2 2 3 5 1 5 6 7 4 5 1 3 5 5 5 4 6 8 10 14 14 14
18 18 19 20 21 21 22 22 22 21 21 20 8 5 7 8 6 6 5 2 4 5 8 5 6 7 6 6 8 5 3 4 4 3 4 3 3 3 4 7 6 6 7 8 5 4 3 2 4 4 5 7 7 6 7 5 5 1 1 2 2 6 5 4 7 3 6 5 8 6 4 7 4 6 5 4 5 8 6 4 6 4 7 10 13 15 16
17 18 18 19 20 21 22 21 22 21 21 22 8 7 6 8 7 7 4 3 4 2 7 6 6 7 6 6 7 7 4 3 4 4 3 5 6 6 7 7 5 6 6 7 5 3 2 3 3 6 3 5 6 3 4 3 3 4 1 1 2 2 6 7 8 7 5 6 9 7 5 3 2 5 5 5 4 5 6 4 4 5 6 9 11 13 14
17 17 17 19 19 20 21 21 21 21 21 20 10 7 6 9 8 8 5 7 7 6 6 8 4 5 4 6 6 6 7 5 6 5 3 3 6 8 9 9 3 4 6 7 3 3 5 6 7 5 3 3 2 1 6 3 1 2 5 6 2 3 3 5 9 9 8 7 8 6 4 3 2 4 3 4 3 3 6 6 4 7 9 8 10 11 12
16 16 17 18 18 19 20 20 21 21 21 21 12 6 6 8 9 10 3 4 4 6 7 9 10 6 6 6 6 6 5 5 6 2 4 1 5 8 8 8 8 5 9 3 4 1 2 3 5 4 3 5 5 2 3 5 2 3 4 4 1 0 3 3 7 8 7 6 6 4 4 5 4 5 5 4 3 4 4 4 7 6 8 8 9 10 10
16 15 15 16 17 18 19 20 20 21 21 20 13 2 6 8 9 11 3 5 5 5 7 8 7 8 7 2 6 6 5 7 8 4 5 2 6 10 8 3 6 5 7 3 4 2 2 1 2 2 4 4 4 1 3 1 2 3 5 6 6 2 3 4 4 6 7 5 6 1 5 3 8 4 4 5 4 4 2 7 4 5 7 8 7 8 7
15 15 14 15 16 17 18 19 19 20 20 20 14 5 6 9 8 10 8 6 5 7 6 9 10 12 9 11 9 9 8 6 9 7 6 6 8 12 6 3 6 7 5 6 3 4 3 1 2 4 4 4 5 5 1 2 2 5 5 2 3 5 1 3 2 4 3 3 6 6 4 4 7 5 1 9 2 6 3 5 7 3 7 8 6 5 6
15 14 14 14 15 17 17 18 19 19 20 20 14 6 6 6 7 8 8 6 2 3 6 7 9 10 10 10 9 10 10 9 9 9 9 7 9 7 4 4 7 5 4 5 4 4 3 5 5 2 2 5 3 3 2 1 2 5 7 5 3 6 4 3 3 5 4 4 2 4 5 3 5 6 2 6 7 5 6 6 8 7 6 7 6 6 5
14 13 13 13 14 16 16 17 18 18 19 21 21 8 4 4 4 4 6 7 6 5 5 5 7 8 9 9 8 8 9 9 9 8 8 6 6 7 4 4 6 6 5 6 4 2 2 1 3 3 1 1 2 2 4 2 3 3 2 5 3 8 3 4 2 4 2 3 2 3 2 5 6 8 7 8 7 5 5 6 6 5 6 6 6 6 5
14 13 13 13 14 15 15 16 17 17 18 20 16 5 5 2 3 5 6 4 4 4 4 4 3 5 6 9 6 6 7 7 7 7 9 9 3 5 6 6 6 5 5 5 7 6 4 7 2 3 2 2 4 3 4 5 0 2 1 5 5 4 4 2 1 6 8 7 6 5 5 6 7 7 7 8 10 10 8 6 6 7 5 5 5 6 4
13 13 12 12 13 14 15 15 17 16 18 16 12 6 4 3 3 6 1 2 1 3 4 3 1 4 6 8 7 7 7 7 8 8 8 9 6 2 5 7 7 3 5 6 5 6 4 4 4 6 2 4 6 4 2 0 1 2 3 2 3 5 3 2 0 6 3 4 5 6 6 7 7 8 8 9 7 7 6 8 6 6 6 7 6 5 4
12 13 11 11 12 13 13 14 15 16 16 15 14 5 4 0 3 5 6 0 1 2 2 2 4 5 3 2 4 6 6 4 4 7 7 8 9 7 6 6 6 7 6 5 4 5 2 3 2 1 1 3 5 2 2 3 2 4 3 1 2 3 3 1 1 2 0 6 7 7 7 6 7 6 6 7 7 6 7 6 6 6 6 5 6 5 5
12 12 11 10 11 11 12 13 14 14 14 17 16 5 4 4 5 5 5 3 2 2 1 2 3 2 2 3 6 4 4 5 5 4 6 5 5 5 5 2 1 0 3 3 5 4 3 1 2 3 4 3 4 4 3 5 3 2 4 2 4 4 3 1 1 2 6 9 8 7 7 7 5 5 5 5 6 8 8 8 8 8 7 7 6 4 5
11 11 11 9 9 10 11 12 13 12 14 14 9 4 3 4 5 6 6 5 5 2 1 3 3 4 3 5 2 2 4 3 3 4 4 7 6 4 3 4 4 1 3 1 3 3 1 1 3 4 6 5 5 4 5 2 3 1 2 5 1 4 3 2 3 2 3 3 6 7 3 4 6 6 6 6 5 6 5 5 5 3 3 2 3 5 4
11 11 11 9 9 10 10 11 11 12 12 13 10 2 2 3 4 5 6 5 6 4 3 2 3 5 1 6 4 3 5 5 5 3 4 4 5 5 5 5 4 4 3 4 2 0 2 2 5 0 1 4 6 2 1 4 2 5 3 4 4 4 6 7 3 3 1 4 7 2 3 4 6 7 6 4 3 3 3 3 2 3 2 2 3 2 6
11 10 9 9 9 9 10 10 10 11 12 12 6 3 2 3 2 5 6 6 6 6 3 4 2 4 0 6 4 3 5 4 4 4 3 4 5 4 3 5 5 4 2 2 1 1 2 4 2 5 4 5 4 2 3 5 5 0 6 3 3 5 4 2 2 2 5 4 4 2 3 4 7 6 4 3 1 1 1 2 2 2 3 3 3 1 3
12 12 10 9 9 10 10 10 10 9 9 6 5 4 3 4 4 5 7 6 6 5 2 2 1 3 2 0 3 4 4 5 3 4 5 4 4 5 5 5 4 4 3 2 3 2 2 2 2 2 2 3 4 3 2 4 2 4 3 5 3 2 3 3 4 5 3 5 4 3 3 3 2 4 2 1 1 4 3 3 6 3 2 3 0 5 5
14 12 10 9 9 9 9 9 10 9 8 5 4 2 3 2 5 6 10 7 6 5 3 3 3 3 2 2 2 4 3 4 3 2 2 2 2 2 3 5 2 5 3 0 1 3 3 1 0 2 2 3 3 2 4 5 2 6 7 3 1 1 1 3 2 2 2 4 3 4 3 3 0 1 3 2 2 2 3 2 3 3 7 5 4 4 3
14 12 9 8 8 8 8 9 9 10 7 5 5 5 5 5 6 8 9 7 6 6 4 2 1 4 3 2 2 2 2 3 5 5 3 6 5 2 2 4 4 5 4 3 2 1 3 1 1 2 1 3 2 5 3 3 4 3 6 2 1 1 2 2 2 1 2 1 2 2 2 1 2 4 4 4 2 2 3 2 5 8 5 3 6 2 2
14 10 8 6 6 7 7 8 7 7 2 6 7 11 9 3 6 7 6 6 5 4 3 3 0 1 1 5 4 1 4 6 3 4 4 5 3 5 2 2 0 2 3 5 1 1 2 1 1 4 5 1 3 3 7 3 2 4 1 3 4 3 3 1 1 1 2 2 1 2 1 0 1 2 2 1 1 1 1 4 4 2 4 4 4 3 4
12 8 5 5 5 4 6 7 6 4 2 4 3 3 6 10 6 1 6 5 4 2 2 1 1 3 1 3 4 4 6 5 3 5 1 5 3 5 3 3 3 1 1 3 3 4 5 1 3 3 2 2 1 3 2 1 1 2 3 2 3 4 3 3 3 3 2 2 1 2 2 2 2 1 1 2 1 1 2 3 3 3 4 3 3 3 3
11 6 2 2 4 4 4 6 4 5 3 1 2 4 5 8 9 9 7 4 3 2 1 1 3 1 1 2 3 4 2 5 2 3 3 3 1 5 3 3 1 2 5 2 3 3 4 2 4 4 2 2 0 1 3 1 3 2 2 2 3 4 5 4 4 3 2 2 1 1 2 2 3 4 3 3 5 4 2 4 3 3 4 4 3 3 4
9 4 2 4 5 7 4 5 6 4 2 2 4 5 6 8 8 6 3 4 4 2 2 2 3 2 1 2 1 2 3 2 2 2 3 3 3 2 3 3 2 4 4 2 4 2 0 5 1 3 2 3 2 2 0 2 1 1 2 3 3 4 4 5 2 4 4 3 2 1 2 3 4 4 4 4 5 3 2 4 4 4 5 5 3 3 2
8 4 2 4 5 5 5 0 1 3 3 4 6 9 9 8 5 4 5 4 4 2 4 1 3 2 3 2 1 2 3 1 3 3 0 2 4 0 3 3 1 3 2 4 3 1 3 1 3 4 3 4 1 1 3 3 3 4 3 3 3 4 5 5 5 5 4 3 4 4 5 5 4 4 4 5 4 2 4 5 5 5 5 4 3 3 3
6 6 4 5 6 2 1 1 2 3 4 5 4 4 4 5 2 2 2 1 2 3 2 4 2 2 1 4 2 4 4 1 0 3 2 3 4 0 1 3 3 2 4 3 3 3 2 2 3 4 3 4 2 1 2 3 4 3 5 5 5 4 5 5 3 3 4 5 5 5 5 4 5 4 5 6 5 4 3 5 5 5 4 3 3 3 4
7 5 7 4 4 0 2 5 3 3 4 3 4 2 2 1 1 0 1 2 2 2 1 2 1 2 3 2 3 3 5 4 4 3 2 3 3 2 2 4 2 2 4 3 3 3 4 2 2 2 4 3 4 3 2 4 4 4 5 5 5 5 4 3 2 4 4 4 5 4 5 6 6 6 4 5 4 2 4 5 5 4 4 3 3 4 5
7 5 1 2 0 3 3 6 6 3 5 2 2 2 1 2 2 2 2 2 1 1 1 0 2 3 3 4 3 2 3 4 4 3 4 1 2 4 2 3 2 3 4 4 2 2 4 4 2 3 3 0 2 4 3 3 5 2 2 4 6 6 5 4 4 2 3 3 2 2 3 3 4 5 4 5 3 4 6 6 5 4 4 3 1 4 5
2 1 2 1 4 0 2 1 4 4 2 1 1 0 0 0 1 1 1 2 1 1 2 2 2 2 1 2 3 2 4 2 2 3 3 2 3 4 2 3 2 3 3 3 2 2 2 3 3 4 2 1 1 2 4 5 3 1 1 3 3 3 4 4 3 4 5 3 1 1 2 3 3 3 2 2 2 4 0 4 4 4 4 4 5 5 4
5 5 5 4 2 0 2 3 2 1 0 1 0 0 0 0 1 2 1 1 1 1 4 1 1 2 2 4 3 4 2 3 3 2 2 1 2 3 2 2 1 3 3 2 2 3 2 3 3 3 1 2 2 2 3 4 1 3 1 2 2 2 3 3 4 5 3 2 1 1 1 2 3 3 1 2 4 5 5 5 6 4 4 5 3 4 4
6 5 4 3 3 2 2 1 1 1 1 0 0 1 1 2 1 1 2 1 1 2 3 2 3 0 2 3 1 1 3 3 2 0 2 2 1 2 2 2 2 4 3 4 3 2 3 3 4 2 2 2 2 2 3 4 3 2 2 3 3 3 4 4 5 4 2 1 1 1 1 1 1 1 1 2 4 3 5 7 6 5 4 4 5 4 3
3 3 3 1 1 0 1 1 1 0 1 1 2 2 2 2 3 2 2 3 2 1 2 3 0 4 1 2 4 0 2 3 1 2 1 0 1 1 1 3 3 2 3 4 3 5 3 2 3 4 1 2 1 1 1 3 3 2 2 4 3 4 4 4 5 4 3 2 2 1 0 1 1 1 2 3 3 5 5 5 6 6 5 4 4 4 3
2 2 1 1 0 1 0 1 1 1 2 2 2 1 2 1 1 1 2 2 2 2 1 1 3 3 3 3 2 1 1 2 1 1 1 1 3 2 2 3 2 3 3 4 3 3 2 4 1 1 1 1 1 2 1 2 3 3 4 4 4 4 5 6 6 5 5 5 5 4 3 2 1 2 2 4 4 4 5 6 6 6 5 6 5 2 1
2 2 2 2 0 2 1 1 1 2 1 2 2 1 3 4 3 3 3 1 3 1 2 2 3 3 3 1 2 1 1 2 2 1 1 2 3 3 1 3 3 4 4 4 5 5 4 2 1 1 1 1 1 2 2 2 2 1 1 5 4 4 5 6 6 6 6 6 5 5 5 4 4 3 3 4 4 5 5 5 5 5 5 4 4 3 2
2 1 2 2 0 1 1 2 3 1 2 2 1 1 2 2 2 3 4 2 3 2 3 1 3 2 3 1 2 2 2 1 2 1 1 3 3 2 1 3 3 3 4 4 5 4 3 1 1 1 1 1 3 3 3 4 3 4 4 4 3 6 5 5 7 8 8 7 8 8 6 5 5 3 3 4 4 5 5 6 6 5 4 5 4 1 2
2 0 2 1 2 2 4 2 0 1 2 1 2 2 2 1 2 2 2 1 2 3 3 3 3 0 2 2 2 3 3 2 3 2 2 2 1 3 2 3 4 4 4 5 4 2 2 1 2 1 2 2 3 4 5 4 4 5 5 4 5 6 8 7 6 7 8 9 8 7 7 6 6 4 3 4 5 5 5 6 6 6 6 5 5 4 3
2 2 1 1 1 1 2 1 3 3 3 2 1 3 2 2 0 0 1 1 2 2 2 4 2 1 2 0 3 2 4 0 2 2 1 2 3 3 3 4 4 5 3 3 4 3 3 3 3 3 3 4 4 5 5 4 5 6 6 7 6 6 6 7 7 7 7 7 8 7 8 7 6 4 3 4 5 6 6 7 7 6 6 6 5 5 4
3 2 1 3 2 3 3 1 3 2 4 3 3 3 1 2 2 3 2 3 2 3 2 3 1 2 1 1 3 2 4 2 2 1 4 5 5 4 5 7 6 6 4 2 4 4 5 5 4 4 4 5 5 6 5 6 6 6 7 6 7 8 7 7 7 7 7 7 8 8 8 7 7 5 4 4 5 6 6 7 7 7 7 7 6 5 5
1 2 2 2 3 1 2 4 3 3 3 4 2 1 2 2 1 1 3 3 2 3 3 4 1 2 2 2 3 3 2 0 3 5 5 6 3 5 6 8 6 4 4 3 4 3 5 5 4 4 4 5 6 6 6 6 7 8 6 8 9 7 7 7 8 7 8 7 8 7 8 9 8 5 3 3 4 5 7 6 6 7 7 7 6 6 5
2 3 4 3 5 5 4 3 2 4 3 1 2 1 2 4 3 1 3 3 4 4 4 1 2 3 2 5 3 2 2 3 4 4 6 5 3 6 6 7 6 4 4 5 5 3 4 3 4 4 5 6 6 7 7 7 7 8 10 9 7 6 7 7 8 8 7 6 7 8 8 7 10 7 5 4 4 5 6 6 6 7 7 7 6 6 5
Wind_Direction
347 347 346 345 344 343 341 339 338 340 340 334 348 328 264 343 41 70 32 82 229 249 261 253 244 242 252 274 299 291 270 264 255 265 250 236 215 251 233 236 242 239 261 254 254 247 246 247 251 110 117 97 21 49 161 70 225 246 226 221 77 162 189 267 241 239 208 206 229 259 254 277 252 241 270 244 227 216 231 250 269 255 235 243 228 237 99
347 348 347 346 346 344 341 338 338 339 350 329 305 291 305 348 36 128 76 138 235 269 284 287 258 251 244 280 274 269 285 269 246 233 241 260 260 233 230 243 233 267 252 291 269 277 278 240 258 199 233 159 157 47 51 88 78 266 347 282 53 213 197 236 237 223 232 214 187 216 207 226 235 241 224 242 254 257 243 238 232 251 241 257 258 240 134
347 349 349 348 346 345 340 339 338 341 339 335 301 306 339 287 170 277 61 8 318 315 323 295 285 304 294 295 267 253 244 249 292 295 285 270 261 268 260 270 291 257 251 258 268 280 278 283 250 169 220 234 131 156 22 354 69 71 49 36 154 246 6 242 233 224 223 223 213 221 211 213 227 229 241 257 250 241 250 234 220 249 213 232 238 91 100
348 351 352 350 348 346 343 340 340 337 339 336 290 280 284 343 319 10 136 13 27 37 357 312 296 279 279 255 284 289 251 200 237 261 242 260 268 267 285 279 257 260 264 258 248 254 234 251 281 279 229 148 193 214 244 252 217 94 67 38 28 86 56 21 20 58 355 333 347 351 296 238 231 207 225 228 239 265 262 267 244 239 232 229 241 135 135
350 352 354 353 350 348 345 342 338 338 334 343 315 291 300 312 3 344 349 302 33 31 23 3 319 318 278 250 336 283 275 270 167 183 256 192 292 276 258 286 262 249 256 262 254 247 252 221 256 244 242 117 107 178 198 201 166 97 57 129 30 303 134 86 60 350 38 326 15 358 317 269 243 228 201 218 226 230 253 245 253 336 342 249 98 136 133
353 353 355 355 352 351 347 344 341 339 333 332 307 292 350 304 60 325 40 322 9 342 30 5 352 347 227 36 302 302 306 349 355 304 276 283 313 282 265 259 247 251 244 238 242 238 241 262 243 252 244 150 126 168 164 182 145 169 208 165 231 215 235 154 32 329 7 2 4 10 26 25 40 26 30 304 200 215 191 19 18 341 258 294 113 127 125
355 353 355 356 355 352 350 347 343 340 334 327 284 327 99 35 82 53 315 329 48 43 35 2 7 28 360 78 17 39 26 57 55 360 332 24 27 346 131 301 333 283 232 228 219 16 241 153 56 13 346 289 276 172 161 140 158 195 196 190 183 200 228 215 185 258 286 299 304 346 356 28 81 58 47 61 51 74 80 68 58 78 94 114 122 109 108
355 354 355 356 355 354 353 351 347 341 338 320 44 24 350 39 331 61 117 98 53 47 37 31 36 59 3 29 17 5 20 35 51 40 14 25 12 358 23 339 42 42 39 51 61 45 37 26 21 9 344 263 10 284 29 181 179 186 181 181 170 204 187 187 201 214 235 225 236 261 265 298 355 17 22 44 69 66 65 68 78 89 85 94 102 104 107
355 354 355 356 357 356 356 354 352 344 341 360 30 62 16 24 353 346 313 47 10 42 55 36 46 50 32 34 8 16 19 357 335 69 19 44 17 4 8 341 349 59 60 51 47 29 21 356 1 317 341 341 23 313 108 333 221 208 166 183 156 204 170 181 202 220 211 199 209 211 216 228 244 257 255 14 39 61 44 51 23 108 123 117 111 111 125
356 356 355 354 357 357 357 357 355 352 333 6 14 36 354 293 162 259 293 46 297 327 46 98 97 64 48 33 12 27 9 14 345 27 359 20 21 9 1 352 325 67 35 27 13 357 341 334 328 323 298 293 309 342 341 346 332 274 197 105 210 192 210 197 201 221 222 196 204 199 198 212 232 220 216 176 99 88 78 69 60 62 127 148 166 110 133
357 357 354 354 357 357 357 357 357 358 350 19 356 19 1 357 339 314 302 352 18 14 55 57 46 43 143 102 13 53 19 14 13 14 7 350 19 7 9 11 5 43 27 355 340 326 323 310 299 270 250 276 244 82 124 162 17 322 323 177 189 244 236 222 213 240 241 206 192 189 205 222 228 32 54 152 150 137 107 76 54 46 37 64 89 116 128
359 357 354 354 356 358 357 356 355 357 356 336 319 13 9 336 300 280 294 4 66 46 56 53 36 42 3 74 139 93 44 6 14 10 20 355 347 3 2 15 6 14 358 328 326 321 277 248 235 214 234 182 169 121 96 86 106 297 247 306 218 177 194 228 213 241 246 199 178 193 217 222 62 172 51 50 106 124 113 103 69 59 80 100 105 121 139
358 357 355 354 354 357 357 354 353 353 354 340 330 22 1 336 300 324 350 9 56 25 60 76 53 44 18 4 349 46 131 164 130 269 276 7 336 356 1 353 356 350 328 328 326 305 266 183 20 288 181 199 204 189 62 69 76 58 10 359 322 263 238 244 279 82 354 227 186 208 177 75 106 92 97 69 114 119 117 99 120 134 131 118 120 122 117
357 355 355 354 353 355 355 353 352 351 350 347 331 21 0 354 344 345 353 356 74 36 324 112 43 29 16 17 346 303 288 153 166 201 46 322 339 357 353 341 353 323 318 319 303 301 290 176 219 200 204 207 187 215 188 160 19 356 276 287 311 351 322 283 251 118 212 252 241 181 106 147 99 106 112 170 135 188 209 240 142 160 157 149 138 127 119
355 354 354 354 353 353 354 352 352 350 349 345 308 18 19 5 352 340 332 311 90 63 21 33 4 340 354 16 359 349 34 353 306 141 111 175 25 41 3 341 336 329 309 297 287 235 261 280 252 223 210 212 203 211 179 189 126 101 42 283 248 265 260 302 269 212 219 236 239 180 197 230 120 48 61 357 8 359 5 66 120 154 160 155 146 138 139
354 354 353 353 353 352 353 352 351 350 352 346 330 40 35 11 332 306 326 351 305 45 30 17 341 321 327 30 8 11 357 346 355 273 193 42 13 7 24 345 346 305 302 271 251 279 298 271 254 250 239 258 245 42 299 174 179 126 306 59 291 283 251 246 251 255 224 241 257 261 252 70 38 79 21 38 346 323 325 281 192 143 171 145 144 142 145
355 353 353 352 352 352 352 352 351 352 349 354 339 20 30 6 342 332 353 57 60 71 25 6 333 306 341 28 13 23 357 10 348 1 0 18 20 4 14 353 325 323 338 301 304 259 222 216 246 260 225 36 315 205 209 250 239 113 148 191 200 241 245 253 243 252 251 252 260 274 38 112 72 52 15 24 343 32 277 242 170 147 148 149 137 142 145
355 353 353 352 351 351 352 352 352 350 350 347 340 3 34 359 351 332 326 63 82 75 43 25 18 27 27 3 7 6 343 355 340 303 305 29 33 8 2 5 353 30 321 333 302 305 317 311 274 255 253 83 317 4 278 31 72 271 325 322 297 106 293 277 266 262 263 264 259 114 115 71 11 19 348 5 328 281 209 245 103 165 141 154 144 145 148
355 354 354 351 349 351 351 351 352 350 347 349 335 348 34 6 355 340 353 63 71 74 46 31 39 42 13 7 17 349 25 346 339 344 353 338 24 337 316 345 326 352 352 15 344 24 311 213 273 303 276 136 175 326 1 321 278 291 277 263 242 253 319 276 266 265 264 268 268 264 79 10 343 344 0 356 291 198 111 87 130 120 133 131 145 140 134
355 354 354 351 349 350 351 350 351 350 347 346 344 31 35 3 358 1 356 70 66 77 49 38 28 45 39 30 24 20 10 23 360 2 17 5 352 317 269 188 40 346 15 349 60 358 341 36 19 331 283 252 66 337 32 194 324 342 322 312 294 27 332 307 356 326 297 265 267 250 221 71 329 345 188 8 346 81 137 120 93 116 113 115 108 130 137
354 353 354 352 350 349 349 350 350 349 346 343 345 316 56 20 0 354 358 330 70 75 65 43 49 46 36 44 30 20 27 22 12 360 354 10 351 322 42 31 353 359 11 346 6 28 343 349 36 356 6 323 59 207 269 43 228 62 338 338 12 22 281 284 73 6 306 313 333 37 41 45 28 325 56 63 55 45 81 107 113 99 101 104 112 104 107
352 352 352 353 351 349 348 350 351 350 346 344 338 292 88 40 24 17 356 31 61 73 74 55 56 59 52 45 43 34 29 19 22 4 354 354 32 21 47 43 30 10 18 327 286 144 250 105 235 306 240 353 225 278 2 255 262 76 65 343 245 34 10 359 7 34 332 31 83 115 71 55 58 70 96 94 82 48 15 88 115 118 105 109 107 102 99
349 350 348 349 351 350 349 350 351 350 347 344 342 354 44 51 83 332 292 83 97 114 178 129 134 105 96 69 53 35 43 31 20 14 7 343 337 49 24 9 41 355 13 358 349 349 32 313 37 329 304 55 347 317 208 257 48 325 352 48 42 76 35 347 8 99 94 72 78 108 94 81 75 80 93 119 130 129 130 125 103 74 71 70 100 101 98
345 346 346 345 347 349 349 349 349 349 346 340 334 328 45 28 350 313 279 46 328 100 89 27 70 41 22 32 28 44 40 44 20 15 5 356 350 83 86 39 338 295 55 15 351 335 5 331 13 296 356 24 334 300 328 241 63 310 271 136 70 48 324 299 153 142 181 87 114 102 110 113 93 84 75 59 56 65 75 93 100 104 103 98 89 92 78
341 342 342 342 341 344 347 346 346 345 343 336 328 283 258 19 8 331 320 350 256 267 76 94 55 27 34 4 25 45 29 352 35 26 20 24 21 11 26 18 7 348 359 344 315 281 256 297 233 221 100 52 324 1 85 305 80 350 315 61 232 111 342 288 87 115 31 126 126 118 113 122 126 122 113 112 106 107 98 94 97 98 97 107 111 118 104
341 341 338 337 335 338 341 342 341 341 340 334 322 334 32 26 350 314 267 268 314 306 181 79 98 208 254 43 38 29 354 3 17 22 27 25 51 22 3 314 198 7 291 338 309 332 341 316 346 350 326 75 324 317 24 32 323 44 310 51 14 16 279 298 248 106 104 120 133 135 132 121 119 107 95 113 127 128 136 134 136 134 128 124 107 70 72
338 338 332 328 329 331 335 335 336 335 334 332 323 355 14 51 14 4 357 354 300 183 154 100 92 106 104 77 29 32 24 18 3 350 38 26 14 30 3 2 328 245 310 341 19 298 304 20 357 22 4 37 318 14 322 220 303 299 256 87 33 258 297 14 255 157 182 171 158 162 167 171 151 136 131 124 121 122 131 157 133 150 131 113 113 95 74
338 335 327 320 322 324 326 329 329 328 326 323 296 317 11 27 38 19 359 351 329 351 342 117 139 72 257 73 353 38 14 20 7 357 19 27 31 10 7 7 4 15 22 311 227 192 309 288 63 72 219 35 297 165 50 349 318 257 265 47 351 4 22 329 341 342 33 82 141 141 38 72 117 132 134 131 141 122 134 134 178 107 71 58 352 299 219
334 325 321 317 315 316 321 318 324 321 323 307 284 257 158 44 47 44 10 341 310 303 314 60 149 188 59 48 335 39 59 31 36 22 5 12 22 343 36 18 10 1 19 340 4 12 36 56 0 356 18 7 309 278 187 221 189 28 65 52 46 39 340 15 25 66 96 97 119 49 359 107 126 128 139 146 145 223 242 44 62 302 355 354 287 254 4
327 328 315 314 312 314 314 315 314 315 316 286 255 245 202 132 54 26 10 338 328 315 290 247 224 85 153 273 51 13 32 52 56 35 5 355 6 355 18 355 31 341 10 21 328 35 35 65 75 82 69 309 298 327 334 256 276 92 105 85 24 60 34 30 6 336 78 85 75 55 91 86 110 133 139 104 59 318 344 23 30 17 349 248 336 309 299
327 322 318 308 310 307 307 309 306 300 293 254 251 251 243 221 83 24 359 335 331 310 306 273 50 95 114 109 272 352 9 37 18 22 42 303 151 20 14 279 115 340 320 251 40 48 295 62 74 111 177 54 329 271 287 315 11 105 59 20 55 145 105 53 33 83 109 111 125 105 121 116 220 154 144 135 179 175 187 186 174 75 8 351 294 296 313
330 323 315 316 301 299 299 300 299 296 268 293 354 358 20 7 349 326 323 309 308 268 273 276 138 239 108 163 123 257 332 17 258 208 119 346 29 12 147 4 24 358 8 343 21 249 53 29 307 319 257 80 256 302 303 263 245 83 85 147 140 117 82 174 136 98 84 107 145 210 212 120 282 347 38 100 79 100 352 355 314 118 132 204 250 270 260
331 324 305 296 289 285 290 291 291 293 24 75 105 119 104 39 325 298 294 304 264 261 287 282 305 65 243 97 147 134 307 242 273 348 70 13 36 286 65 26 234 149 102 270 203 36 82 293 268 235 87 89 260 253 286 296 23 59 25 192 171 158 170 117 168 150 153 168 277 288 317 71 85 162 199 215 248 315 173 245 203 238 298 294 283 268 241
329 326 306 268 262 272 274 279 290 298 166 170 187 86 40 22 315 300 317 282 285 326 261 276 164 224 116 92 229 84 319 339 50 330 59 79 353 281 24 258 79 288 84 314 39 238 167 252 285 33 96 176 272 303 276 43 47 143 180 175 171 180 189 193 212 203 209 159 175 305 8 23 19 356 179 258 218 197 312 304 323 277 249 259 261 251 289
336 326 296 214 231 243 247 235 208 218 251 160 65 54 6 357 325 300 287 304 270 185 241 257 274 261 168 196 239 103 315 289 347 4 338 64 6 358 334 279 192 259 96 311 261 312 320 23 32 273 208 85 233 298 265 248 148 192 180 201 198 216 203 220 217 216 186 156 246 225 213 205 220 239 255 235 240 249 258 279 294 283 259 232 233 263 254
337 325 246 220 211 210 201 226 250 240 191 46 50 38 3 314 291 274 279 278 299 319 227 167 242 247 262 294 122 98 271 246 351 306 71 303 223 52 322 316 289 79 328 285 306 297 55 72 260 270 133 219 234 232 10 6 6 203 232 252 189 229 228 235 236 211 192 181 233 300 296 268 263 275 271 275 277 259 237 263 257 250 253 253 253 285 305
327 325 274 226 205 207 215 164 90 359 29 349 334 334 303 292 243 241 231 233 197 210 299 315 259 50 351 44 95 93 291 320 35 289 228 342 348 351 323 306 346 13 265 221 223 265 85 60 276 279 274 274 280 309 339 336 290 286 260 240 225 223 224 223 198 196 213 189 213 217 229 243 256 261 277 279 279 250 231 228 239 239 241 256 271 261 274
340 296 235 218 221 209 153 192 65 35 332 273 262 260 184 222 187 161 184 189 73 278 216 263 295 67 174 281 71 55 299 317 285 313 28 26 301 14 359 292 49 330 305 309 60 48 310 269 241 262 275 271 328 308 288 287 287 263 260 268 254 233 224 226 182 204 223 233 222 230 251 257 276 280 282 277 260 232 230 239 231 229 245 253 251 256 270
270 229 219 230 235 327 22 62 75 68 299 249 242 257 149 264 206 149 115 113 219 202 108 290 49 337 318 323 90 34 345 330 312 296 310 86 323 338 27 322 84 296 313 274 109 324 271 240 244 269 264 210 241 163 216 256 266 267 277 271 267 264 241 225 207 240 247 272 336 344 327 326 321 315 294 266 271 255 213 222 227 234 246 238 231 248 281
219 223 240 210 278 64 89 119 143 201 227 217 197 271 149 220 241 166 211 214 161 121 228 130 27 349 1 327 319 116 0 302 319 355 338 353 101 320 12 292 23 312 298 293 77 342 290 296 277 271 278 344 112 118 273 306 285 310 295 263 253 249 244 240 205 209 243 251 258 325 326 302 310 303 310 297 257 220 207 207 209 224 213 237 29 315 276
3 219 195 32 63 76 75 174 180 219 216 218 118 259 266 297 1 41 229 197 167 93 332 343 167 160 275 319 317 315 107 282 289 294 274 300 57 285 298 310 9 298 291 278 69 292 287 284 285 277 296 22 326 345 315 281 274 239 228 263 219 220 220 207 180 193 218 216 227 271 310 319 311 303 299 310 243 201 189 262 221 195 213 252 242 255 311
1 339 352 308 312 293 194 196 215 166 36 257 173 176 24 113 196 208 311 276 129 161 133 282 178 301 47 331 346 320 94 358 317 308 309 313 67 310 313 300 341 301 301 23 352 272 267 270 280 281 332 35 12 302 284 299 321 255 209 225 225 201 190 186 186 207 215 250 315 311 335 335 323 299 299 187 186 195 173 209 249 215 226 239 266 277 267
248 244 283 261 197 201 236 182 110 258 160 85 169 71 224 195 193 213 146 103 69 274 112 227 5 333 99 280 212 322 355 5 297 216 262 320 16 241 313 319 279 252 281 329 293 297 279 271 272 279 57 66 14 334 331 317 324 328 299 261 227 198 197 201 213 219 187 185 168 269 336 339 308 299 250 230 251 159 134 223 215 220 234 257 266 301 340
206 241 233 219 205 169 230 165 207 328 320 208 165 155 198 182 187 181 198 137 177 194 356 314 333 308 52 78 327 36 178 152 263 294 290 30 279 293 292 263 239 309 312 263 271 269 279 296 283 289 8 79 314 306 330 328 317 319 253 228 233 239 225 231 228 222 217 209 215 221 319 347 332 249 223 234 236 244 199 196 227 228 244 280 293 278 248
220 224 231 204 194 203 145 16 226 188 207 173 255 149 177 168 139 153 83 83 291 58 130 290 314 306 300 40 241 110 310 319 124 255 300 297 291 293 270 285 326 301 286 289 283 287 295 287 292 290 310 255 238 292 349 317 327 343 304 269 226 236 235 237 240 248 244 231 242 248 253 270 270 270 240 232 225 241 253 227 209 214 225 235 249 288 269
240 242 199 177 268 279 224 172 181 221 164 177 221 9 47 67 32 76 75 3 310 17 304 341 305 296 294 118 292 321 228 279 291 273 290 269 284 274 287 302 294 288 288 274 265 270 283 292 153 165 206 311 299 285 299 300 311 339 324 295 294 253 236 250 251 239 237 245 249 250 254 277 269 263 263 256 247 234 235 251 255 239 226 237 254 257 246
255 242 267 285 265 202 229 210 206 145 167 204 52 52 65 79 53 22 43 316 316 6 312 336 287 333 304 318 270 210 209 256 279 278 270 261 247 265 244 286 281 250 256 277 282 282 284 308 355 314 350 359 286 292 302 296 300 312 319 304 300 282 275 261 259 261 260 242 234 235 232 244 250 247 254 251 241 235 231 232 225 222 243 252 269 235 222
273 292 292 227 205 196 197 212 97 156 285 51 116 57 61 314 240 124 98 327 347 336 341 305 279 220 236 132 259 294 304 297 298 275 250 278 241 264 290 262 256 261 257 270 273 276 287 328 324 324 351 329 303 299 295 309 321 297 290 289 304 303 291 278 271 265 260 257 253 248 245 246 256 251 245 259 256 240 222 232 230 224 216 219 231 221 231
311 289 261 266 273 240 263 124 228 200 160 180 211 218 181 224 201 353 70 355 295 331 353 304 339 309 274 153 269 267 268 189 251 229 186 228 236 236 228 253 255 272 263 251 275 301 316 332 12 347 325 308 304 292 299 307 293 283 273 275 281 271 273 280 274 272 273 265 256 248 242 246 261 266 253 251 249 250 229 219 223 221 222 225 225 224 214
242 212 228 244 236 238 234 223 259 244 169 176 200 240 213 246 246 103 77 281 296 302 273 234 207 291 295 284 281 283 275 236 238 257 252 250 245 254 248 258 258 260 285 331 328 334 338 334 324 283 290 296 293 297 305 302 294 288 290 283 266 273 285 294 291 275 261 258 254 249 247 245 247 233 225 255 250 253 238 220 212 219 220 218 222 215 220
230 281 259 255 275 274 176 233 231 239 212 198 213 233 255 278 293 148 118 283 305 295 273 275 225 226 259 254 252 257 233 357 256 242 240 255 252 244 243 252 267 292 308 303 293 308 312 314 307 316 310 285 284 296 302 291 282 274 258 269 277 280 286 289 284 276 267 260 253 248 253 249 239 233 199 243 259 240 235 225 220 226 226 222 215 224 218
216 221 241 220 230 253 246 267 297 283 284 287 231 239 278 264 245 271 107 277 277 269 281 290 260 259 241 249 245 265 301 270 262 278 268 261 248 258 259 269 289 306 318 303 304 310 296 294 333 329 292 290 293 291 289 288 282 286 293 281 271 272 275 274 278 278 266 257 253 249 232 243 261 232 206 229 228 239 243 236 206 219 230 228 216 213 225